Find Starlink 11194

NORAD ID: 60187 Int'l Des: 2024-124 Owner: SPXS Country: US Constellation: starlink operational
LEOCIRCULAR

实时位置

正在加载3D地球...

关于 Starlink 11194

正在加载描述...

即将过境

Passes for default location (London). Set your location on the main map for personalized predictions.

高度历史

Loading altitude history...

两行轨道根数

1 60187U 24124E 26127.55433759 -.00000459 00000-0 10712-5 0 9999
2 60187 53.1594 230.7636 0001305 100.0733 260.0432 15.69703115105787
Epoch: May 7, 2026 • Age: 9 hours

当前状态

高度 359.8 km
速度 7.70 km/s
星下点 13.51°N, 35.23°E
发射日期 Jul 3, 2024
运行时间 1.8 years
类型 internet

技术详情

分类 Payload
质量 960.00 kg
干质量 910.00 kg
总质量 960.00 kg
长度 0.30 m
直径 4.10 m
跨度 29.00 m
形状 Box + pan
制造商 SPXS
平台类型 Starlink V2MD
阶段状态 In Orbit
所有者/国家 SPXS/US

Most Searched